Simultaneous Nadir Overpasses (SNOs) Predictions

Prediction of SNOs between GOES-16 and LANDSAT-8 Satellite Orbit:

Table of predicted SNOs for the next 14.0 days since TLE Epoch: 1/18/2025
Index Date Time (GOES-16) GOES-16 Lat,Lon LANDSAT-8 Lat,Lon Distance(km) Time Diff (sec)
1 01/18/2025 03:24:41 -0.01, -75.16 0.00, -77.75 288.77 80
2 01/20/2025 03:09:40 -0.01, -75.19 0.13, -74.68 58.26 80
3 01/22/2025 02:57:27 -0.01, -75.23 0.76, -71.72 399.34 80
4 01/22/2025 15:18:42 0.01, -75.28 0.33, -76.88 181.73 80
5 01/24/2025 15:09:08 0.01, -75.32 -0.27, -73.91 159.98 80
6 01/25/2025 03:30:31 -0.02, -75.29 -0.80, -79.10 432.47 80
7 01/27/2025 03:18:17 -0.02, -75.34 -0.16, -76.14 90.44 80
8 01/29/2025 03:03:22 -0.02, -75.38 0.44, -73.16 252.20 80
9 01/29/2025 15:24:37 0.02, -75.43 0.63, -78.32 328.80 80
10 01/31/2025 15:15:02 0.02, -75.48 -0.00, -75.35 14.90 80
